Regional Weather Roundup
Issued by NWS Charleston, WV

Home | Current Version | Previous Version | Graphics & Text | Print | Product List | Glossary On
Versions: 1 2 3 4 5 6 7 8 9 10 11 12 13 14 15 16 17 18 19 20 21 22 23 24 25 26 27 28 29 30 31 32 33 34 35 36 37 38 39 40 41 42 43 44 45 46 47 48 49 50
501
ASUS41 KRLX 071710
RWRRLX
West Virginia Regional Weather Roundup
National Weather Service Charleston WV
1200 PM EST WED DEC 07 2016

Note: "fair" indicates few or no clouds below 12,000 feet with no
significant weather and/or obstructions to visibility.

WVZ003-071800-
Northern Panhandle of West Virginia

CITY           SKY/WX    TMP DP  RH WIND       PRES   REMARKS
WHEELING       SUNNY     36  24  62 W13       30.08F
$$

WVZ009-071800-
Northwest West Virginia

CITY           SKY/WX    TMP DP  RH WIND       PRES   REMARKS
PARKERSBURG    SUNNY     40  26  57 W9        30.15F
$$

WVZ006-071800-
Western West Virginia

CITY           SKY/WX    TMP DP  RH WIND       PRES   REMARKS
HUNTINGTON     SUNNY     44  25  47 VRB3      30.15F
$$

WVZ015-071800-
West Central West Virginia

CITY           SKY/WX    TMP DP  RH WIND       PRES   REMARKS
CHARLESTON     MOSUNNY   42  31  64 SW9       30.13F
$$

WVZ022-031-071800-
North Central West Virginia

CITY           SKY/WX    TMP DP  RH WIND       PRES   REMARKS
CLARKSBURG     SUNNY     41  29  62 SW7       30.08F
MORGANTOWN     MOSUNNY   42  31  64 VRB3      30.08F
$$

WVZ025-035-042-045-071800-
Southern West Virginia

CITY           SKY/WX    TMP DP  RH WIND       PRES   REMARKS
BECKLEY        MOSUNNY   41  29  62 NW7       30.07F
LOGAN          CLOUDY    37  34  87 CALM      30.12S
BLUEFIELD      PTSUNNY   37  29  72 VRB5      30.07F
LEWISBURG      SUNNY     41  29  62 CALM      30.04F
$$

WVZ047-071800-
Northern Mountains of West Virginia

CITY           SKY/WX    TMP DP  RH WIND       PRES   REMARKS
ELKINS         MOSUNNY   42  27  55 W8        30.07S
$$

WVZ052-071800-
Eastern Panhandle of West Virginia

CITY           SKY/WX    TMP DP  RH WIND       PRES   REMARKS
MARTINSBURG    MOSUNNY   46  31  55 W8        30.04S
PETERSBURG     SUNNY     48  32  52 NE3       30.04F
$$




USA.gov is the U.S. government's official web portal to all federal, state and local government web resources and services.